#timestamp,LO_Frequency,Hit,StdDev 
1709564415.9,286047005.2,Y
1709564435.7,286047002.1,P
1709564455.6,286047002.3,P
1709564475.4,286047001.4,P
1709564495.3,286047001.6,Y
1709564515.1,286047000.0,P
1709564516.0,286047000.0,N
1709564535.8,286047000.3,N
1709564555.7,286047000.0,N
1709564575.5,286047000.6,N
1709564595.3,286047000.2,N
1709564615.2,286047000.6,N
1709564635.0,286046998.4,N
1709564635.9,286046998.4,N
1709564655.8,286046998.4,N
1709564675.6,286046998.6,N
1709564695.4,286046999.0,N
1709564715.3,286046998.5,N
1709564735.8,286046998.8,N
1709564755.7,286046999.0,N
1709564775.5,286046996.7,Y
1709564795.4,286046996.8,P
1709564815.2,286046996.8,N
1709564835.0,286046995.1,P
1709564835.9,286046995.1,Y
1709564855.8,286047000.8,P
1709564875.6,286046998.2,N
1709564895.4,286046998.9,N
1709564915.3,286047000.9,N
1709564935.1,286047000.0,N
1709564955.9,286047000.2,N
1709564975.7,286047002.5,N
1709564995.5,286047001.6,N
1709565015.4,286047001.6,N
1709565035.2,286047001.8,N
1709565055.0,286047001.6,N
1709565055.9,286047001.6,N
1709565075.8,286047002.0,N
1709565095.6,286047004.2,N
1709565115.5,286047004.4,N
1709565135.3,286047001.5,N
1709565155.1,286047001.7,N
1709565175.9,286047004.3,N
1709565195.7,286047004.2,N
1709565215.5,286047003.1,N
1709565235.4,286047003.5,N
1709565255.2,286047003.4,N
1709565275.0,286047001.8,N
1709565276.0,286047001.8,N
1709565295.8,286047003.8,N
1709565315.6,286047004.0,N
1709565335.5,286047001.8,N
1709565355.3,286047003.9,N
1709565375.1,286047003.9,N
1709565395.9,286047004.4,N
1709565415.7,286047003.8,N
1709565435.5,286047003.9,N
1709565455.4,286047001.3,N
1709565475.2,286047004.3,Y
1709565495.1,286047000.6,P
1709565496.0,286047000.6,N
1709565515.8,286047000.3,N
1709565535.6,286047000.3,N
1709565555.5,286047000.7,N
1709565575.3,286047002.6,Y
1709565595.2,286047000.5,P
1709565615.9,286046998.2,P
1709565635.7,286047001.0,N
1709565655.6,286047000.6,N
1709565675.4,286046999.9,N
1709565695.2,286046999.8,N
1709565715.1,286047002.7,Y
1709565716.0,286047002.7,P
1709565735.8,286047002.0,N
1709565755.7,286047002.1,N
1709565775.5,286047002.0,N
1709565795.3,286047002.1,N
1709565815.2,286047002.6,Y
1709565835.0,286046998.2,P
1709565835.9,286046998.2,N
1709565855.8,286046998.3,N
1709565875.6,286046998.5,N
1709565895.4,286047001.2,N
1709565915.3,286047001.2,N
1709565935.1,286046998.6,N
1709565955.8,286046998.3,N
1709565975.7,286046998.4,N
1709565995.5,286047000.0,N
1709566015.4,286047002.3,N
1709566035.2,286047002.6,N
1709566055.0,286046999.8,N
1709566055.9,286046999.8,N
1709566075.8,286047000.0,N
1709566095.6,286047002.5,N
1709566115.4,286047002.7,N
1709566135.3,286047002.1,N
1709566155.1,286047001.9,N
1709566175.8,286047001.8,N
1709566195.7,286047001.5,N
1709566215.5,286047002.4,N
1709566235.4,286047000.2,N
1709566255.2,286047000.8,N
1709566275.0,286047000.0,N
1709566275.9,286047000.0,N
1709566295.8,286046998.8,N
1709566315.6,286046998.1,N
1709566335.4,286047000.7,N
1709566355.3,286047001.1,N
1709566375.1,286047000.9,N
1709566395.8,286047000.7,N
1709566415.7,286046998.1,N
1709566435.5,286046998.5,N
1709566455.4,286047001.1,N
1709566475.2,286047000.8,N
1709566495.0,286046998.3,N
1709566495.9,286046998.3,N
1709566515.8,286046998.7,N
1709566535.6,286046998.1,N
1709566555.4,286046999.0,N
1709566575.3,286046999.2,N
1709566595.1,286046999.0,N
1709566615.8,286046998.1,N
1709566635.7,286047002.5,N
1709566655.5,286047002.3,N
1709566675.3,286047002.2,N
1709566695.2,286047001.7,N
1709566715.0,286047001.5,N
1709566715.9,286047001.5,N
1709566735.8,286047001.8,N
1709566755.6,286047002.6,N
1709566775.4,286047000.1,N
1709566795.3,286047002.1,N
1709566815.1,286047003.9,N
1709566835.8,286047003.0,N
1709566855.7,286047005.6,Y
1709566875.5,286047004.1,P
1709566895.4,286047003.2,N
1709566915.2,286047003.4,N
1709566935.0,286047004.1,N
1709566935.9,286047004.1,N
1709566955.8,286047004.4,Y
1709566975.6,286046998.3,P
1709566995.5,286047000.9,N
1709567015.3,286047000.7,N
1709567035.1,286046998.6,N
1709567055.9,286047000.9,N
1709567075.7,286047000.4,N
1709567095.5,286047002.7,N
1709567115.6,286047001.9,N
1709567135.5,286047002.5,N
1709567155.3,286047002.3,N
1709567175.2,286047002.0,N
1709567195.9,286047001.6,N
1709567215.7,286047002.6,N
1709567235.6,286047002.3,N
1709567255.4,286047002.4,N
1709567275.2,286047000.5,N
1709567295.1,286046998.6,N
1709567296.0,286046998.6,N
1709567315.8,286046998.2,N
1709567335.7,286046998.1,N
1709567355.5,286046998.8,N
1709567375.3,286047001.2,N
1709567395.2,286047002.0,N
1709567415.9,286047004.1,N
1709567435.7,286047003.1,N
1709567455.6,286047001.8,N
1709567475.4,286047001.9,N
1709567495.2,286047002.2,N
1709567515.1,286047001.9,N
1709567516.0,286047001.9,N
1709567535.8,286047002.6,N
1709567555.7,286047003.2,N
1709567575.5,286047004.2,N
1709567595.3,286047003.3,N
1709567615.2,286047001.5,N
1709567635.0,286047001.4,N
1709567635.9,286047001.4,N
1709567655.8,286047004.1,N
1709567675.6,286047001.4,N
1709567695.4,286047001.5,N
1709567715.3,286047004.4,N
1709567735.1,286047003.0,N
1709567755.8,286047002.9,N
1709567775.7,286047004.4,N
1709567795.5,286047003.5,N
1709567815.3,286047003.7,N
1709567835.2,286047001.5,N
1709567855.0,286047001.3,N
1709567855.9,286047001.3,N
1709567875.8,286047001.4,N
1709567895.6,286047001.5,N
1709567915.4,286047001.7,N
1709567935.3,286047002.7,N
1709567955.1,286047002.0,N
1709567975.8,286047001.7,N
1709567995.7,286047001.8,N
